Powrót do katalogu

COSMOS 397 DEB

AktywnyLEO
NORAD 5197·DEBRIS·🇷🇺 Russia

Wystrzelony Feb 25, 1971 z Baikonur Cosmodrome

Loading…

Następne Przeloty (najbliższe 24 godziny)

TLE

ŚwieżeSource: Space-Track

Epoka: Sep 14, 2026, 13:55 UTC

1 05197U 71015AT  26257.57992343  .00002027  00000-0  71105-3 0  9998
2 05197  65.5344 194.0179 0703780 323.5197  31.9784 13.48287143645858

Śledź COSMOS 397 DEB w czasie rzeczywistym z AllMySat

Download on the App Store